KM4NDN Weather Reports


time (UTC)temp
F
wind
direction
speed
knots
gust
knots
rain 1hr
in
rain 24hr
in
rain mn
in
humidity
%
barometer
mb
20260903043854 81 248 3.5 6.1 0.00 0.00 0.00 79 1012.7
20260903043349 81 280 5.2 7.8 0.00 0.00 0.00 79 1012.8
20260903042847 81 254 4.3 6.1 0.00 0.00 0.00 79 1012.6
20260903042343 82 247 4.3 6.1 0.00 0.00 0.00 78 1012.6
20260903041839 82 234 3.5 6.1 0.00 0.00 0.00 78 1012.5
20260903041335 82 230 6.1 7.0 0.00 0.00 0.00 78 1012.5
20260903040831 82 246 5.2 7.0 0.00 0.00 0.00 77 1012.2
20260903040329 82 225 6.1 7.8 0.00 0.00 0.00 77 1012.3
20260903035826 82 234 7.0 7.0 0.00 0.00 0.00 77 1012.3
20260903035321 82 229 3.5 7.0 0.00 0.00 0.00 77 1012.2
20260903034816 82 247 5.2 13.0 0.00 0.00 0.00 77 1012.3
20260903034311 82 262 6.1 7.8 0.00 0.00 0.00 77 1012.2
20260903033807 82 243 6.1 13.0 0.00 0.00 0.00 76 1012.1
20260903033307 82 269 5.2 7.8 0.00 0.00 0.00 77 1012.0
20260903032801 82 269 6.1 11.3 0.00 0.00 0.00 77 1011.6
20260903032257 82 256 8.7 11.3 0.00 0.00 0.00 77 1011.9
20260903031753 82 239 7.0 11.3 0.00 0.00 0.00 77 1011.7
20260903031252 82 234 7.8 9.6 0.00 0.00 0.00 77 1011.7
20260903030748 82 247 2.6 7.0 0.00 0.00 0.00 77 1011.6
20260903030243 82 246 4.3 6.1 0.00 0.00 0.00 77 1011.7
20260903025739 82 239 6.1 11.3 0.00 0.00 0.00 77 1011.9
20260903025234 82 231 4.3 7.0 0.00 0.00 0.00 77 1012.2
20260903024729 81 191 3.5 9.6 0.00 0.00 0.00 78 1012.0
20260903024228 81 286 5.2 6.1 0.00 0.00 0.00 78 1012.3
20260903023724 81 232 3.5 5.2 0.00 0.00 0.00 78 1012.4
20260903023220 81 238 1.7 6.1 0.00 0.00 0.00 78 1012.5
20260903022719 81 211 5.2 6.1 0.00 0.00 0.00 78 1012.5
20260903022218 81 235 2.6 5.2 0.00 0.00 0.00 78 1012.7
20260903021719 81 228 0.9 3.5 0.00 0.00 0.00 78 1012.7
20260903021214 81 204 3.5 3.5 0.00 0.00 0.00 78 1012.7
20260903020713 81 214 1.7 3.5 0.00 0.00 0.00 78 1012.6
20260903020208 81 222 2.6 5.2 0.00 0.00 0.00 78 1012.7
20260903015704 81 247 1.7 3.5 0.00 0.00 0.00 78 1012.9
20260903015159 81 164 2.6 3.5 0.00 0.00 0.00 78 1013.0
20260903014654 81 181 1.7 3.5 0.00 0.00 0.00 78 1012.8
20260903014153 81 220 3.5 5.2 0.00 0.00 0.00 78 1012.8
20260903013648 81 199 3.5 3.5 0.00 0.00 0.00 78 1012.8
20260903013148 81 220 0.9 0.9 0.00 0.00 0.00 77 1012.8
20260903012647 81 213 1.7 1.7 0.00 0.00 0.00 77 1012.8
20260903012146 81 237 3.5 3.5 0.00 0.00 0.00 77 1012.8
20260903011641 81 211 1.7 1.7 0.00 0.00 0.00 77 1012.7
20260903011140 82 231 1.7 1.7 0.00 0.00 0.00 77 1012.6
20260903010636 82 192 1.7 1.7 0.00 0.00 0.00 76 1012.6
20260903010135 82 192 0.9 0.9 0.00 0.00 0.00 75 1012.7
20260903005635 82 192 0.9 0.9 0.00 0.00 0.00 75 1012.5
20260903005130 82 202 0.9 0.9 0.00 0.00 0.00 75 1012.5
20260903004625 83 229 0.9 1.7 0.00 0.00 0.00 74 1012.6
20260903004120 83 217 0.9 0.9 0.00 0.00 0.00 74 1012.8
20260903003616 83 217 0.9 0.9 0.00 0.00 0.00 73 1012.6
20260903003111 84 230 1.7 2.6 0.00 0.00 0.00 72 1012.4
20260903002606 84 214 0.9 2.6 0.00 0.00 0.00 72 1012.5
20260903002100 84 238 1.7 1.7 0.00 0.00 0.00 71 1012.5
20260903001555 85 240 0.9 2.6 0.00 0.00 0.00 70 1012.4
20260903001054 85 240 1.7 2.6 0.00 0.00 0.00 69 1012.2
20260903000551 85 233 1.7 2.6 0.00 0.00 0.00 69 1012.4
20260903000050 86 232 3.5 3.5 0.00 0.00 0.00 68 1012.3
20260902235549 86 254 1.7 2.6 0.00 0.00 0.00 67 1012.5
20260902235044 86 223 3.5 6.1 0.00 0.00 0.00 66 1012.5
20260902234544 86 274 3.5 7.0 0.00 0.00 0.00 65 1012.3
20260902234043 87 243 3.5 7.0 0.00 0.00 0.00 65 1012.5
20260902233538 87 257 4.3 7.0 0.00 0.00 0.00 65 1012.4
20260902233033 87 242 3.5 3.5 0.00 0.00 0.00 64 1012.3
20260902232532 88 247 3.5 5.2 0.00 0.00 0.00 64 1012.3
20260902232032 88 248 3.5 3.5 0.00 0.00 0.00 64 1012.2
20260902231527 88 250 4.3 6.1 0.00 0.00 0.00 63 1012.3
20260902231026 88 232 3.5 5.2 0.00 0.00 0.00 63 1012.3
20260902230521 89 257 7.8 8.7 0.00 0.00 0.00 63 1012.2
20260902230020 89 259 5.2 8.7 0.00 0.00 0.00 63 1012.4
20260902225516 89 262 5.2 7.0 0.00 0.00 0.00 63 1012.1
20260902225015 89 249 4.3 5.2 0.00 0.00 0.00 63 1012.0
20260902224514 89 264 3.5 6.1 0.00 0.00 0.00 63 1012.3
20260902224011 90 249 5.2 7.0 0.00 0.00 0.00 62 1012.5
20260902223507 90 228 5.2 7.8 0.00 0.00 0.00 62 1012.2
20260902223006 90 257 4.3 5.2 0.00 0.00 0.00 62 1012.5
20260902222505 89 258 7.8 8.7 0.00 0.00 0.00 62 1012.2
20260902222004 89 258 5.2 7.8 0.00 0.00 0.00 62 1012.3
20260902221503 90 251 6.1 7.8 0.00 0.00 0.00 62 1012.4
20260902220959 90 248 4.3 6.1 0.00 0.00 0.00 63 1012.3
20260902220459 90 237 5.2 5.2 0.00 0.00 0.00 62 1012.3
20260902215954 90 246 3.5 6.1 0.00 0.00 0.00 61 1012.3
20260902215450 89 251 2.6 7.0 0.00 0.00 0.00 61 1012.4
20260902214945 89 224 5.2 9.6 0.00 0.00 0.00 60 1012.5
20260902214444 89 238 7.8 14.8 0.00 0.00 0.00 61 1012.4
20260902213938 89 257 4.3 9.6 0.00 0.00 0.00 61 1012.6
20260902213435 90 252 2.6 6.1 0.00 0.00 0.00 59 1012.6
20260902212933 91 233 4.3 7.0 0.00 0.00 0.00 57 1012.4
20260902212430 91 237 5.2 7.8 0.00 0.00 0.00 56 1012.7
20260902211926 92 244 7.0 11.3 0.00 0.00 0.00 54 1012.6
20260902211421 92 247 8.7 11.3 0.00 0.00 0.00 53 1012.6
20260902210917 92 278 10.4 12.2 0.00 0.00 0.00 54 1012.7
20260902210416 92 250 5.2 11.3 0.00 0.00 0.00 55 1012.7
20260902205914 92 243 6.1 13.0 0.00 0.00 0.00 55 1012.7
20260902205409 92 240 9.6 13.9 0.00 0.00 0.00 55 1012.7
20260902204906 92 260 10.4 13.0 0.00 0.00 0.00 54 1012.7
20260902204405 93 202 6.1 12.2 0.00 0.00 0.00 56 1012.9
20260902203901 93 256 6.1 8.7 0.00 0.00 0.00 55 1012.9
20260902203356 93 217 5.2 6.1 0.00 0.00 0.00 57 1013.0
20260902202855 92 236 7.8 11.3 0.00 0.00 0.00 55 1013.2
20260902202351 92 256 5.2 6.1 0.00 0.00 0.00 58 1013.0
20260902201848 91 222 6.1 12.2 0.00 0.00 0.00 58 1013.1
20260902201348 92 260 5.2 7.0 0.00 0.00 0.00 57 1013.2
20260902200843 93 246 12.2 13.9 0.00 0.00 0.00 54 1013.3
20260902200338 93 265 6.1 8.7 0.00 0.00 0.00 56 1013.3
20260902195833 93 260 5.2 9.6 0.00 0.00 0.00 58 1013.2
20260902195332 93 262 7.0 7.8 0.00 0.00 0.00 57 1013.3
20260902194827 93 258 6.1 9.6 0.00 0.00 0.00 56 1013.2
20260902194322 92 246 5.2 9.6 0.00 0.00 0.00 58 1013.4
20260902193818 92 268 8.7 12.2 0.00 0.00 0.00 57 1013.4
20260902193313 93 244 6.1 9.6 0.00 0.00 0.00 58 1013.4
20260902192812 92 271 0.9 3.5 0.00 0.00 0.00 60 1013.6
20260902192311 93 233 6.1 11.3 0.00 0.00 0.00 60 1013.8
20260902191810 93 228 6.1 7.0 0.00 0.00 0.00 58 1013.5
20260902191306 93 276 6.1 7.8 0.00 0.00 0.00 57 1013.8
20260902190806 92 248 7.0 8.7 0.00 0.00 0.00 59 1013.7
20260902190305 91 251 7.8 9.6 0.00 0.00 0.00 59 1013.7
20260902185802 92 257 8.7 12.2 0.00 0.00 0.00 58 1013.8
20260902185257 92 268 6.1 13.0 0.00 0.00 0.00 61 1013.9
20260902184753 92 184 11.3 13.0 0.00 0.00 0.00 59 1013.9
20260902184248 91 264 6.1 9.6 0.00 0.00 0.00 59 1013.8
20260902183744 91 268 4.3 11.3 0.00 0.00 0.00 59 1013.9
20260902183240 91 224 7.0 8.7 0.00 0.00 0.00 59 1014.3
20260902182736 91 267 7.0 9.6 0.00 0.00 0.00 60 1014.0
20260902182232 91 246 9.6 11.3 0.00 0.00 0.00 59 1014.0
20260902181728 91 211 7.8 7.8 0.00 0.00 0.00 60 1014.1
20260902181228 91 248 7.0 8.7 0.00 0.00 0.00 60 1014.3
20260902180723 91 230 3.5 7.0 0.00 0.00 0.00 60 1014.3
20260902180218 91 273 4.3 7.0 0.00 0.00 0.00 57 1014.6
20260902175713 90 327 7.0 11.3 0.00 0.00 0.00 58 1014.5
20260902175209 91 241 6.1 9.6 0.00 0.00 0.00 61 1014.4
20260902174704 90 268 6.1 8.7 0.00 0.00 0.00 63 1014.4
20260902174200 90 263 7.8 8.7 0.00 0.00 0.00 63 1014.4
20260902173656 90 235 7.0 7.8 0.00 0.00 0.00 64 1014.5
20260902173150 90 254 5.2 7.8 0.00 0.00 0.00 65 1014.6
20260902172645 89 248 8.7 8.7 0.00 0.00 0.00 64 1014.8
20260902172144 89 261 7.0 8.7 0.00 0.00 0.00 62 1014.7
20260902171639 89 260 9.6 9.6 0.00 0.00 0.00 63 1014.8
20260902171135 89 233 6.1 7.0 0.00 0.00 0.00 65 1014.8
20260902170631 89 227 5.2 7.8 0.00 0.00 0.00 65 1014.9
20260902170126 89 263 7.0 8.7 0.00 0.00 0.00 65 1015.2
20260902165621 89 273 4.3 7.8 0.00 0.00 0.00 64 1015.3
20260902165120 89 288 5.2 7.0 0.00 0.00 0.00 64 1015.3
20260902164616 88 242 1.7 7.0 0.00 0.00 0.00 70 1015.2
20260902164115 88 255 4.3 7.0 0.00 0.00 0.00 67 1015.4
20260902163610 87 213 1.7 6.1 0.00 0.00 0.00 70 1015.3
20260902163109 87 287 3.5 6.1 0.00 0.00 0.00 71 1015.4
20260902162608 87 262 4.3 6.1 0.00 0.00 0.00 71 1015.1
20260902162103 86 216 3.5 5.2 0.00 0.00 0.00 71 1015.4
20260902161558 87 262 3.5 7.0 0.00 0.00 0.00 69 1015.3
20260902161054 88 263 9.6 11.3 0.00 0.00 0.00 68 1015.3
20260902160550 87 271 5.2 7.8 0.00 0.00 0.00 71 1015.3
20260902160045 87 267 5.2 7.8 0.00 0.00 0.00 67 1015.1
20260902155538 87 213 5.2 7.0 0.00 0.00 0.00 68 1015.2
20260902155037 86 262 4.3 7.0 0.00 0.00 0.00 69 1015.2
20260902154533 86 241 5.2 7.0 0.00 0.00 0.00 69 1015.1
20260902154032 86 288 3.5 7.8 0.00 0.00 0.00 71 1015.1
20260902153531 86 219 3.5 6.1 0.00 0.00 0.00 71 1015.3
20260902153027 85 226 4.3 7.0 0.00 0.00 0.00 71 1015.2
20260902152523 86 266 5.2 7.8 0.00 0.00 0.00 69 1015.2
20260902152018 85 241 4.3 7.0 0.00 0.00 0.00 69 1015.2
20260902151514 85 270 5.2 7.0 0.00 0.00 0.00 70 1015.4
20260902151013 85 240 2.6 7.0 0.00 0.00 0.00 69 1015.1
20260902150509 86 260 4.3 7.8 0.00 0.00 0.00 70 1015.0
20260902150010 85 227 4.3 7.8 0.00 0.00 0.00 71 1015.2
20260902145505 85 250 7.0 7.8 0.00 0.00 0.00 71 1015.0
20260902144959 84 262 3.5 7.0 0.00 0.00 0.00 72 1015.0
20260902144456 84 237 7.8 9.6 0.00 0.00 0.00 73 1015.0
20260902143955 84 236 5.2 6.1 0.00 0.00 0.00 73 1015.1
20260902143451 84 254 2.6 7.0 0.00 0.00 0.00 74 1015.1
20260902142946 84 203 5.2 8.7 0.00 0.00 0.00 74 1015.0
20260902142443 84 287 6.1 7.8 0.00 0.00 0.00 75 1014.9
20260902141943 83 237 5.2 7.0 0.00 0.00 0.00 76 1015.0
20260902141438 82 196 2.6 3.5 0.00 0.00 0.00 78 1015.1
20260902140937 82 253 5.2 7.0 0.00 0.00 0.00 79 1015.0
20260902140433 81 242 5.2 6.1 0.00 0.00 0.00 79 1015.1
20260902135932 81 252 5.2 6.1 0.00 0.00 0.00 78 1014.8
20260902135429 81 227 2.6 7.8 0.00 0.00 0.00 78 1015.0
20260902134927 81 248 4.3 11.3 0.00 0.00 0.00 78 1014.9
20260902134423 81 254 6.1 8.7 0.00 0.00 0.00 79 1014.8
20260902133919 81 269 5.2 7.8 0.00 0.00 0.00 80 1015.0
20260902133419 81 222 7.8 7.8 0.00 0.00 0.00 79 1015.0
20260902132914 81 258 7.8 7.8 0.00 0.00 0.00 81 1014.9
20260902132409 80 282 5.2 9.6 0.00 0.00 0.00 81 1015.0
20260902131903 80 257 5.2 8.7 0.00 0.00 0.00 82 1014.7
20260902131401 80 251 4.3 7.0 0.00 0.00 0.00 83 1014.8
20260902130859 79 234 2.6 6.1 0.00 0.00 0.00 84 1014.9
20260902130356 79 239 3.5 7.0 0.00 0.00 0.00 85 1014.9
20260902125850 78 224 3.5 7.0 0.00 0.00 0.00 85 1014.6
20260902125346 78 249 5.2 6.1 0.00 0.00 0.00 86 1015.2
20260902124843 78 222 7.0 7.0 0.00 0.00 0.00 86 1014.7
20260902124338 78 249 3.5 6.1 0.00 0.00 0.00 87 1015.0
20260902123833 78 241 4.3 7.0 0.00 0.00 0.00 87 1014.9
20260902123330 78 230 2.6 3.5 0.00 0.00 0.00 87 1015.0
20260902122828 77 238 2.6 3.5 0.00 0.00 0.00 87 1015.1
20260902122324 77 221 2.6 6.1 0.00 0.00 0.00 87 1014.9
20260902121823 77 258 3.5 5.2 0.00 0.00 0.00 87 1014.8
20260902121319 77 237 3.5 6.1 0.00 0.00 0.00 87 1015.0
20260902120814 77 237 7.0 7.8 0.00 0.00 0.00 87 1014.6
20260902120311 77 231 3.5 6.1 0.00 0.00 0.00 88 1014.8
20260902115805 77 228 2.6 3.5 0.00 0.00 0.00 88 1014.9
20260902115306 77 242 2.6 3.5 0.00 0.00 0.00 88 1014.7
20260902114758 77 223 2.6 5.2 0.00 0.00 0.00 87 1014.7
20260902114254 77 225 3.5 5.2 0.00 0.00 0.00 87 1014.6
20260902113753 77 242 3.5 6.1 0.00 0.00 0.00 87 1014.7
20260902113249 77 230 3.5 3.5 0.00 0.00 0.00 88 1014.5
20260902112748 76 252 2.6 3.5 0.00 0.00 0.00 88 1014.5
20260902112245 76 229 3.5 6.1 0.00 0.00 0.00 89 1014.4
20260902111740 76 226 3.5 5.2 0.00 0.00 0.00 89 1014.1
20260902111237 75 243 3.5 5.2 0.00 0.00 0.00 90 1014.5
20260902110732 75 234 3.5 5.2 0.00 0.00 0.00 90 1014.4
20260902110228 75 226 2.6 5.2 0.00 0.00 0.00 90 1014.2
20260902105727 75 236 3.5 3.5 0.00 0.00 0.00 90 1014.2
20260902105223 75 223 4.3 5.2 0.00 0.00 0.00 90 1014.3
20260902104718 75 223 3.5 3.5 0.00 0.00 0.00 91 1014.2
20260902104214 75 239 3.5 3.5 0.00 0.00 0.00 91 1014.3
20260902103713 75 230 2.6 3.5 0.00 0.00 0.00 91 1014.3
20260902103208 75 231 3.5 3.5 0.00 0.00 0.00 92 1014.3
20260902102704 75 222 2.6 5.2 0.00 0.00 0.00 92 1014.4
20260902102201 75 232 3.5 3.5 0.00 0.00 0.00 92 1014.5
20260902101701 75 243 2.6 2.6 0.00 0.00 0.00 92 1014.2
20260902101156 75 228 1.7 3.5 0.00 0.00 0.00 92 1014.4
20260902100655 75 221 1.7 2.6 0.00 0.00 0.00 92 1014.4
20260902100151 75 217 1.7 2.6 0.00 0.00 0.00 92 1014.4
20260902095650 75 215 2.6 2.6 0.00 0.00 0.00 93 1014.3
20260902095144 75 231 2.6 2.6 0.00 0.00 0.00 93 1014.5
20260902094639 74 227 2.6 2.6 0.00 0.00 0.00 93 1014.4
20260902094135 74 211 0.9 1.7 0.00 0.00 0.00 93 1014.4
20260902093634 74 220 2.6 3.5 0.00 0.00 0.00 93 1014.4
20260902093130 74 205 1.7 3.5 0.00 0.00 0.00 93 1014.2
20260902092624 74 218 1.7 3.5 0.00 0.00 0.00 93 1014.3
20260902092119 74 194 1.7 3.5 0.00 0.00 0.00 93 1014.4
20260902091614 74 219 2.6 3.5 0.00 0.00 0.00 93 1014.4
20260902091111 74 224 1.7 3.5 0.00 0.00 0.00 93 1014.5
20260902090607 74 196 1.7 2.6 0.00 0.00 0.00 93 1014.4
20260902090105 74 183 0.9 1.7 0.00 0.00 0.00 93 1014.4
20260902085600 74 193 0.9 1.7 0.00 0.00 0.00 93 1014.5
20260902085055 75 211 1.7 1.7 0.00 0.00 0.00 93 1014.6
20260902084551 74 212 1.7 1.7 0.00 0.00 0.00 93 1014.4
20260902084047 75 194 1.7 1.7 0.00 0.00 0.00 93 1014.4
20260902083542 75 194 0.9 1.7 0.00 0.00 0.00 93 1014.5
20260902083042 74 194 1.7 1.7 0.00 0.00 0.00 93 1014.6
20260902082537 75 195 0.0 0.0 0.00 0.00 0.00 93 1014.5
20260902082034 75 195 0.9 0.9 0.00 0.00 0.00 93 1014.5
20260902081530 75 195 0.0 0.0 0.00 0.00 0.00 93 1014.4
20260902081030 75 195 0.0 0.0 0.00 0.00 0.00 93 1014.4
20260902080525 74 195 0.9 0.9 0.00 0.00 0.00 93 1014.3
20260902080022 74 195 1.7 1.7 0.00 0.00 0.00 93 1014.1
20260902075516 74 209 0.0 0.9 0.00 0.00 0.00 93 1013.9
20260902075012 74 202 1.7 1.7 0.00 0.00 0.00 93 1013.9
20260902074507 74 209 0.9 1.7 0.00 0.00 0.00 93 1014.0
20260902074007 74 214 0.9 1.7 0.00 0.00 0.00 93 1014.0
20260902073503 74 217 0.9 1.7 0.00 0.00 0.00 93 1013.9
20260902072959 74 184 0.0 1.7 0.00 0.00 0.00 93 1014.0
20260902072454 74 223 0.0 2.6 0.00 0.00 0.00 94 1013.9
20260902071951 74 173 1.7 2.6 0.00 0.00 0.00 94 1014.1
20260902071450 74 196 0.9 1.7 0.00 0.00 0.00 94 1013.9
20260902070947 74 195 0.9 1.7 0.00 0.00 0.00 93 1014.0
20260902070442 74 195 1.7 1.7 0.00 0.00 0.00 93 1014.1
20260902065941 75 215 0.9 1.7 0.00 0.00 0.00 93 1014.1
20260902065436 74 202 1.7 1.7 0.00 0.00 0.00 94 1014.1
20260902064931 74 205 1.7 1.7 0.00 0.00 0.00 93 1014.3
20260902064427 74 204 0.9 2.6 0.00 0.00 0.00 93 1014.1
20260902063922 75 195 0.9 1.7 0.00 0.00 0.00 93 1014.0
20260902063422 75 204 1.7 2.6 0.00 0.00 0.00 93 1014.1
20260902062917 75 208 1.7 1.7 0.00 0.00 0.00 93 1014.2
20260902062416 75 217 1.7 1.7 0.00 0.00 0.00 92 1014.2
20260902061911 75 217 1.7 1.7 0.00 0.00 0.00 92 1014.3
20260902061406 75 217 0.9 0.9 0.00 0.00 0.00 92 1014.3
20260902060902 75 217 1.7 1.7 0.00 0.00 0.00 92 1014.4
20260902060358 75 217 0.9 1.7 0.00 0.00 0.00 91 1014.3
20260902055854 75 214 1.7 1.7 0.00 0.00 0.00 91 1014.2
20260902055350 75 206 1.7 1.7 0.00 0.00 0.00 91 1014.5
20260902054845 75 234 1.7 2.6 0.00 0.00 0.00 90 1014.5
20260902054340 75 201 1.7 1.7 0.00 0.00 0.00 90 1014.5
20260902053836 75 198 1.7 1.7 0.00 0.00 0.00 90 1014.4
20260902053331 75 176 1.7 1.7 0.00 0.00 0.00 90 1014.5
20260902052830 75 167 0.9 1.7 0.00 0.00 0.00 90 1014.2
20260902052326 75 164 0.9 0.9 0.00 0.00 0.00 90 1014.3
20260902051826 74 164 0.9 0.9 0.00 0.00 0.00 90 1014.5
20260902051326 74 164 0.0 0.0 0.00 0.00 0.00 90 1014.4
20260902050826 74 164 0.0 0.9 0.00 0.00 0.00 90 1014.4
20260902050325 74 164 0.0 0.9 0.00 0.00 0.00 90 1014.4
20260902045820 74 164 0.9 0.9 0.00 0.00 0.00 90 1014.4
20260902045316 74 164 0.0 0.9 0.00 0.00 0.00 90 1014.2
20260902044813 74 164 0.0 0.0 0.00 0.00 0.00 89 1014.2
20260902044308 74 163 0.9 0.9 0.00 0.00 0.00 90 1014.2